Location: Sweet Grass
(48.9965°N, 111.9649°W)
Time: 13:30:57
(UTC+00:00)

Envisat - Pass Details

Date: 11 December 2022
Orbit: 763 x 765 km, 98.2° (Epoch: 06 February)

Event Time Altitude Azimuth Distance (km) Brightness Sun altitude
Rises 11:01:31 0° 21° (NNE) 3,245 6.6 -39.8°
Reaches altitude 10° 11:04:02 10° 30° (NNE) 2,314 5.8 -39.4°
Enters shadow 11:04:19 11° 32° (NNE) 2,214 5.7 -39.4°
